Location: Czekanka
(50.4925°N, 19.2643°E)
Time: 08:00:02
(UTC+00:00)

Cosmos 2263 Rocket - Pass Details

Date: 20 September 2024
Orbit: 821 x 849 km, 71.0° (Epoch: 12 October)

Event Time Altitude Azimuth Distance (km) Brightness Sun altitude
Rises 02:23:43 0° 150° (SSE) 3,367 5.4 -19.6°
Reaches altitude 10° 02:27:22 10° 126° (SE) 2,446 5.0 -19.1°
Maximum altitude 02:30:05 14° 96° (E) 2,191 5.1 -18.7°
Drops below altitude 10° 02:32:49 10° 67° (ENE) 2,465 5.9 -18.3°
Sets 02:36:31 0° 43° (NE) 3,412 6.6 -17.8°
